Wind_Speed
10 10 9 4 6 10 9 9 6 15 15 8 8 4 13 17 13 12 9 7 5 6 5 4 4 4 4 4 5 7 8 7 6 5 4 5 6 6 5 6 5 3 2 2 3 5 7 9 9
14 12 10 5 3 11 12 15 15 7 13 6 8 0 14 17 17 14 14 11 12 9 8 8 6 7 6 6 6 8 8 9 8 6 6 5 6 7 7 7 6 4 3 4 5 6 8 9 9
17 14 14 7 4 12 16 11 15 6 4 10 13 10 18 19 18 17 16 15 13 12 11 11 10 9 8 8 9 10 11 9 10 8 7 7 7 8 9 8 8 6 5 5 6 7 8 9 10
21 17 14 9 6 9 11 10 16 13 6 9 17 10 13 18 18 22 21 17 12 12 11 12 14 14 12 12 11 12 13 12 11 11 10 9 8 10 11 10 9 7 6 7 8 9 9 9 9
24 21 17 9 9 13 12 5 8 6 7 15 9 14 8 13 18 18 20 16 13 10 10 9 12 17 17 15 14 13 14 14 13 12 11 11 10 12 13 12 11 10 8 10 10 10 10 11 11
24 23 19 13 12 14 2 4 0 9 13 13 14 15 15 12 18 14 19 15 13 10 10 11 14 13 17 17 16 14 14 14 15 13 12 12 10 12 14 14 13 11 11 12 12 11 10 9 12
25 25 21 18 16 16 11 8 13 11 18 17 21 15 15 12 12 14 18 18 13 14 15 14 13 12 14 17 16 15 16 15 14 14 13 13 11 12 13 17 15 13 12 13 13 13 14 13 12
28 26 23 21 19 23 23 18 9 8 27 27 27 20 11 11 8 9 16 18 19 17 18 19 16 12 14 15 16 15 16 16 16 15 14 13 13 13 14 17 17 15 14 14 14 15 14 13 12
28 25 22 24 27 31 27 8 2 15 24 32 32 22 13 12 12 8 10 15 21 19 20 18 14 10 8 13 13 14 14 16 17 17 16 14 14 15 15 16 18 17 16 16 16 16 15 15 12
23 22 19 24 33 38 26 12 14 20 28 33 36 27 19 14 14 10 9 15 18 19 18 17 13 10 9 9 13 15 14 15 16 17 17 17 15 16 16 15 17 19 18 16 18 16 17 15 11
20 19 23 28 41 39 33 21 23 28 36 38 31 12 14 14 15 13 9 11 10 16 18 15 14 14 13 10 11 12 14 14 16 16 16 17 18 18 17 16 16 19 21 19 19 18 19 15 14
19 22 26 32 39 41 36 29 29 30 34 39 36 19 17 18 19 20 15 9 9 10 15 16 11 15 19 16 14 11 12 14 14 15 14 15 18 19 18 17 16 17 21 23 21 20 19 17 16
21 23 26 31 36 40 41 34 31 35 37 38 40 29 23 24 23 21 22 15 15 13 13 16 13 15 17 15 12 10 11 13 13 13 15 15 15 16 18 19 19 18 19 23 24 21 20 19 20
28 28 30 33 34 36 41 38 39 36 38 40 39 34 28 27 22 21 22 20 20 14 11 14 11 12 14 11 9 9 12 13 12 13 15 16 15 17 15 14 19 21 21 23 24 24 23 22 24
30 28 30 32 34 34 32 36 43 43 43 41 35 36 29 30 25 21 22 27 30 22 11 14 17 13 12 11 11 11 11 12 15 16 16 17 17 19 18 18 18 17 19 24 26 26 26 25 26
25 22 24 27 29 31 30 26 38 39 36 33 34 37 33 29 28 24 23 26 31 27 18 15 19 21 19 17 16 18 19 16 15 18 20 20 19 21 22 21 22 22 22 20 21 26 28 28 30
18 16 19 20 24 27 26 29 33 33 30 28 30 31 26 28 29 29 27 28 30 33 26 19 20 22 26 26 26 23 25 23 21 20 22 23 24 24 25 25 25 26 26 24 25 25 26 27 29
23 21 18 14 17 21 26 27 29 28 27 26 26 25 23 25 28 30 29 28 32 32 31 30 24 26 28 29 27 28 27 27 27 26 26 29 30 29 30 31 30 30 30 28 28 27 29 33 31
19 19 22 22 19 16 14 20 24 25 25 20 22 25 23 25 26 28 29 27 30 34 32 32 32 31 31 30 27 28 29 29 30 32 32 32 34 37 34 34 35 35 35 34 36 32 31 35 32
19 17 11 23 20 15 15 18 23 27 29 23 16 14 18 22 24 26 26 25 28 32 34 36 36 36 33 33 32 30 32 33 33 35 34 35 36 38 38 39 40 42 42 42 42 41 38 37 35
22 21 16 20 24 25 28 29 34 30 27 21 15 15 19 17 20 22 23 25 25 28 31 33 36 36 36 34 32 34 34 36 37 37 38 38 37 39 42 43 48 49 46 52 48 47 47 43 41
24 23 24 24 29 25 27 29 29 22 24 28 21 16 21 20 21 23 21 23 25 28 30 32 34 36 38 37 37 33 35 37 38 40 41 42 42 44 44 46 50 54 54 64 56 53 53 50 47
20 29 31 31 29 24 28 29 27 33 38 30 20 16 18 22 18 21 22 23 18 19 24 28 31 33 37 40 42 42 44 42 43 44 45 45 45 47 48 51 55 61 66 44 45 62 57 53 54
15 20 27 34 40 41 33 37 41 37 28 27 20 18 23 26 25 25 28 22 21 24 27 28 31 33 34 36 39 43 45 46 47 49 48 51 51 53 53 53 57 63 54 45 46 51 52 54 56
15 18 22 25 30 32 28 37 41 36 34 29 24 20 21 26 23 27 29 27 30 32 37 38 32 34 35 36 38 40 43 43 44 46 48 49 53 55 57 58 59 59 60 58 56 53 47 46 52
19 22 23 26 24 23 29 36 39 40 37 34 31 29 28 28 29 31 29 33 35 37 36 31 30 34 37 40 41 42 44 47 48 48 48 48 48 49 51 51 50 51 52 50 47 52 55 62 66
20 20 23 22 21 21 22 29 34 36 35 33 32 34 27 20 25 28 34 39 39 35 34 37 41 44 44 44 44 45 46 47 49 50 51 52 54 54 53 55 53 51 51 51 52 49 52 56 56
27 30 29 30 32 29 28 27 31 39 36 37 29 25 27 27 24 33 36 35 36 38 42 45 45 43 43 43 44 45 46 46 46 47 48 50 51 53 55 54 56 55 54 54 53 51 51 56 59
32 33 32 32 31 31 31 29 28 32 36 41 41 36 30 32 35 37 39 39 37 37 40 43 45 44 43 43 43 43 44 43 44 46 47 49 52 54 56 58 58 58 59 59 60 60 59 58 59
38 38 37 35 32 29 30 31 27 31 37 39 40 41 44 47 47 40 36 37 42 44 43 43 44 45 45 45 44 43 43 45 47 48 51 54 56 56 58 61 64 65 65 65 65 67 67 67 65
Wind_Direction
237 230 232 231 235 237 225 203 280 186 181 128 135 100 285 302 290 291 293 287 283 288 303 297 283 253 262 266 270 273 277 278 282 288 297 305 296 287 297 312 315 284 247 161 134 129 127 119 121
246 236 233 217 253 240 239 237 233 340 10 20 338 312 249 268 275 276 282 288 289 285 274 278 278 265 252 263 264 265 264 271 273 276 285 290 283 275 279 289 284 254 223 175 158 155 144 143 141
243 242 240 224 247 235 235 266 258 353 341 325 302 296 262 260 271 270 276 279 283 288 279 277 271 270 254 253 259 259 259 256 267 271 277 273 269 261 260 270 276 252 229 189 172 169 158 150 143
248 244 242 230 248 238 241 238 259 270 312 312 297 282 263 250 257 272 273 281 286 282 291 293 281 276 266 247 247 252 258 256 254 259 261 266 269 265 257 260 266 261 217 208 186 186 169 157 141
241 242 239 223 213 227 254 159 215 234 300 288 269 300 299 270 262 255 274 264 263 278 295 300 297 279 269 259 248 249 256 262 259 258 258 257 260 262 260 260 259 262 240 216 201 200 188 165 150
243 239 233 218 212 215 351 273 297 224 294 284 291 284 288 261 265 284 271 258 272 284 292 302 307 296 267 257 254 248 252 260 264 261 259 259 259 265 264 258 258 261 249 233 212 207 202 191 170
244 240 226 212 206 150 176 223 250 234 253 274 278 268 289 285 273 260 267 272 275 291 303 307 313 291 262 254 248 250 251 254 260 261 260 260 260 263 265 262 257 259 252 243 224 218 206 203 195
242 234 221 206 194 191 209 213 228 236 258 264 272 266 257 281 274 247 269 277 283 289 295 308 320 301 269 254 253 250 256 259 258 258 259 263 266 264 265 265 260 259 263 250 239 226 226 217 203
241 230 219 201 185 206 213 178 321 257 267 271 271 265 269 269 254 257 255 259 273 278 283 297 307 300 290 255 257 258 261 264 267 266 263 264 267 269 268 267 262 260 266 254 246 238 230 228 218
239 232 219 196 193 208 196 179 227 239 255 262 268 273 275 273 262 248 259 260 271 289 293 295 299 293 293 284 269 264 263 269 266 266 269 269 267 268 269 267 262 257 259 264 256 251 239 244 227
230 220 200 191 199 205 202 177 214 234 249 256 263 311 258 270 266 269 261 264 289 293 307 298 286 283 281 301 297 275 270 268 270 267 271 272 266 263 263 268 266 267 261 259 263 255 250 247 236
219 206 202 200 202 207 203 194 211 234 249 259 268 289 269 276 256 264 268 265 295 288 285 291 287 276 275 281 288 286 271 270 274 277 271 273 272 263 258 255 261 261 263 261 263 269 265 259 250
218 215 204 206 211 208 210 200 216 233 242 253 265 264 265 263 268 263 275 271 277 272 266 284 288 265 270 275 272 271 269 261 267 272 278 274 276 276 268 258 251 250 255 261 262 266 270 259 253
215 212 205 211 218 221 213 203 216 229 244 254 267 265 273 267 266 268 274 285 285 283 283 288 289 267 260 258 258 268 262 255 256 263 269 276 280 280 279 280 266 256 251 255 258 260 262 265 263
218 217 218 214 217 225 228 222 224 229 235 253 265 267 278 275 270 270 271 268 281 282 271 269 282 261 266 259 263 267 271 270 254 250 255 263 275 281 284 278 277 270 259 258 258 261 261 260 262
226 227 234 221 217 220 230 224 225 235 239 244 253 262 270 276 274 266 262 271 273 279 273 268 259 258 257 254 270 279 274 268 265 263 256 251 255 267 277 280 279 273 273 270 265 260 259 256 256
216 200 206 205 212 219 224 229 235 243 244 244 251 255 254 257 263 267 265 267 271 273 276 267 263 259 260 257 263 267 267 265 263 260 262 260 254 252 258 265 267 272 274 277 272 268 266 260 253
172 163 173 192 208 218 228 227 236 247 252 249 247 256 259 260 262 263 261 260 266 270 273 276 269 263 259 259 259 264 262 259 260 263 262 263 261 254 250 251 256 262 266 271 270 265 260 261 257
163 174 186 188 191 213 232 232 243 255 263 266 253 253 258 263 264 267 266 265 266 270 268 265 266 262 265 267 261 263 264 261 257 254 252 255 263 267 263 259 259 258 260 261 263 260 260 261 262
169 185 202 191 195 217 232 240 258 263 259 260 261 262 264 264 273 273 271 265 261 263 269 270 267 270 269 269 273 271 268 267 265 266 262 259 259 259 262 266 264 260 260 258 256 258 256 256 259
193 195 172 180 184 195 209 225 249 251 259 276 259 259 262 273 265 269 275 273 266 263 264 266 270 271 270 267 262 263 265 268 267 265 267 265 262 262 260 258 267 245 260 250 244 248 252 253 253
211 215 198 199 201 214 218 222 238 257 271 281 275 262 254 261 268 258 269 277 273 267 266 266 265 267 270 271 270 266 263 263 266 268 270 269 267 266 266 260 255 258 262 249 241 241 244 246 249
229 218 224 222 223 236 240 250 246 259 278 278 272 265 268 246 270 268 280 276 274 279 276 273 272 271 270 270 271 270 267 266 264 265 266 268 269 270 271 268 266 280 252 246 230 248 244 248 252
224 230 234 238 247 249 245 253 261 271 272 261 258 264 264 257 260 271 260 254 278 280 285 282 277 276 273 270 270 272 273 272 270 269 269 269 271 272 273 272 269 271 265 275 264 233 237 242 250
248 250 245 239 237 239 218 227 244 246 247 254 262 257 251 266 274 250 247 271 281 284 288 286 276 275 276 275 274 274 274 276 275 273 272 272 271 273 274 276 278 282 281 278 271 275 249 246 252
264 263 260 243 241 246 234 232 235 244 248 258 253 253 260 266 253 247 271 277 280 283 280 276 282 290 287 283 282 280 278 277 277 276 277 277 277 277 279 280 282 283 283 284 280 278 274 275 271
263 265 254 263 267 258 249 247 249 250 255 256 256 254 260 272 279 278 270 274 283 282 279 282 287 292 292 286 281 278 277 276 277 277 278 279 280 282 282 284 286 285 285 285 284 280 275 272 273
271 268 267 276 278 269 265 257 251 249 253 254 255 257 258 268 263 266 270 279 279 283 288 292 293 292 289 285 282 281 279 277 276 276 278 280 281 283 285 285 285 286 284 283 281 280 278 277 276
267 267 271 273 271 276 273 265 257 257 258 258 260 261 261 263 267 273 279 284 288 287 290 290 292 291 288 285 281 278 277 277 276 277 280 283 283 282 282 282 282 281 282 282 282 280 277 273 271
272 270 272 270 277 271 269 269 263 260 259 260 259 259 258 263 273 277 278 286 295 295 291 289 287 288 286 282 277 272 272 274 276 278 281 284 285 283 283 282 283 284 283 281 279 280 279 276 273
Height
5908 5908 5909 5911 5914 5911 5911 5915 5913 5913 5911 5916 5916 5915 5921 5924 5922 5924 5922 5921 5921 5920 5919 5919 5920 5920 5920 5920 5921 5922 5922 5921 5922 5923 5923 5923 5923 5924 5923 5921 5920 5919 5919 5919 5919 5918 5918 5917 5917
5906 5907 5908 5910 5912 5908 5909 5910 5912 5914 5915 5920 5921 5917 5922 5922 5923 5921 5920 5921 5919 5919 5919 5919 5919 5920 5920 5921 5921 5922 5922 5922 5922 5922 5922 5922 5923 5923 5924 5923 5921 5921 5921 5920 5920 5920 5919 5918 5919
5903 5905 5907 5909 5909 5907 5908 5909 5910 5911 5914 5913 5918 5920 5922 5921 5922 5919 5918 5918 5917 5917 5918 5918 5919 5919 5919 5920 5921 5921 5921 5921 5922 5921 5922 5922 5922 5922 5923 5923 5922 5921 5922 5921 5921 5921 5921 5920 5919
5901 5903 5906 5908 5906 5904 5904 5908 5908 5910 5912 5911 5914 5916 5918 5918 5919 5918 5916 5915 5915 5915 5916 5917 5917 5918 5918 5918 5919 5920 5921 5920 5920 5921 5921 5922 5922 5922 5923 5922 5922 5922 5921 5921 5921 5921 5921 5920 5921
5896 5900 5902 5906 5906 5904 5902 5903 5903 5906 5911 5910 5911 5912 5916 5917 5916 5916 5914 5914 5913 5914 5914 5914 5915 5916 5917 5917 5917 5918 5919 5920 5921 5921 5921 5921 5922 5922 5923 5923 5922 5922 5922 5922 5921 5921 5920 5920 5921
5893 5896 5901 5904 5904 5903 5903 5901 5900 5902 5904 5906 5907 5910 5913 5916 5916 5915 5912 5913 5912 5912 5912 5912 5913 5913 5914 5915 5916 5916 5917 5919 5920 5920 5921 5921 5921 5922 5923 5923 5922 5922 5922 5922 5921 5920 5922 5922 5920
5889 5891 5896 5900 5902 5904 5901 5897 5893 5898 5899 5905 5904 5908 5911 5912 5913 5913 5910 5909 5910 5910 5910 5910 5910 5911 5912 5913 5914 5914 5916 5917 5918 5919 5920 5920 5921 5921 5922 5923 5923 5922 5921 5921 5920 5919 5920 5921 5922
5882 5886 5891 5897 5898 5898 5894 5892 5891 5892 5898 5902 5901 5904 5908 5910 5913 5910 5909 5906 5905 5907 5908 5909 5908 5909 5910 5911 5912 5912 5914 5915 5916 5917 5918 5918 5920 5920 5920 5921 5922 5921 5920 5919 5919 5917 5921 5921 5923
5876 5882 5887 5892 5896 5890 5890 5888 5894 5896 5895 5896 5900 5901 5903 5906 5910 5910 5908 5907 5903 5906 5908 5908 5908 5907 5907 5909 5910 5911 5912 5913 5914 5915 5916 5916 5917 5918 5918 5919 5920 5920 5919 5918 5918 5917 5920 5920 5923
5872 5879 5885 5887 5888 5886 5886 5886 5891 5892 5890 5890 5892 5896 5900 5901 5903 5905 5907 5906 5904 5904 5906 5906 5907 5907 5907 5908 5909 5909 5910 5910 5911 5912 5913 5914 5915 5915 5916 5917 5918 5919 5918 5917 5917 5916 5917 5921 5923
5868 5875 5878 5878 5879 5884 5883 5885 5886 5887 5888 5887 5889 5894 5896 5898 5898 5900 5904 5905 5904 5902 5902 5904 5904 5905 5905 5906 5907 5907 5908 5908 5908 5909 5910 5911 5912 5912 5912 5914 5915 5916 5916 5916 5915 5914 5915 5918 5921
5864 5867 5872 5873 5876 5879 5879 5881 5882 5881 5883 5884 5886 5892 5891 5892 5893 5894 5898 5901 5902 5902 5899 5899 5902 5902 5902 5903 5904 5904 5905 5905 5906 5906 5907 5908 5908 5908 5908 5909 5911 5912 5912 5913 5914 5914 5913 5914 5917
5860 5864 5866 5869 5871 5875 5876 5876 5877 5878 5879 5880 5883 5887 5888 5888 5890 5890 5892 5896 5900 5901 5900 5896 5898 5897 5899 5899 5900 5901 5902 5902 5903 5904 5905 5905 5904 5904 5905 5905 5906 5907 5908 5907 5911 5911 5910 5911 5910
5853 5856 5859 5862 5866 5870 5874 5874 5874 5875 5874 5876 5878 5881 5884 5884 5888 5887 5885 5887 5891 5896 5896 5894 5895 5895 5894 5897 5896 5897 5898 5899 5899 5900 5902 5902 5901 5900 5901 5901 5902 5902 5903 5902 5905 5906 5906 5906 5906
5848 5852 5855 5855 5860 5864 5869 5874 5870 5872 5870 5872 5873 5876 5880 5880 5883 5885 5881 5880 5880 5888 5894 5892 5892 5892 5891 5893 5894 5894 5895 5896 5896 5895 5897 5898 5898 5897 5896 5897 5897 5897 5897 5898 5899 5900 5901 5902 5901
5846 5850 5853 5854 5855 5859 5862 5869 5866 5866 5870 5873 5873 5873 5876 5875 5875 5879 5878 5875 5876 5879 5887 5889 5889 5889 5890 5890 5890 5889 5891 5891 5892 5891 5891 5893 5894 5894 5893 5893 5891 5892 5893 5894 5893 5894 5894 5896 5896
5843 5843 5846 5848 5852 5854 5858 5859 5860 5862 5868 5872 5872 5872 5873 5872 5871 5871 5874 5873 5872 5872 5878 5882 5884 5885 5885 5886 5887 5887 5886 5885 5886 5886 5886 5886 5888 5888 5888 5888 5888 5887 5886 5887 5888 5888 5887 5887 5889
5836 5837 5839 5842 5847 5849 5853 5855 5855 5857 5861 5866 5867 5866 5867 5868 5867 5867 5870 5870 5869 5869 5870 5872 5876 5876 5877 5878 5880 5880 5881 5880 5880 5880 5879 5877 5878 5880 5880 5880 5880 5880 5882 5882 5883 5882 5881 5879 5883
5832 5833 5834 5839 5842 5845 5848 5848 5849 5851 5854 5858 5861 5861 5862 5862 5862 5861 5863 5866 5865 5862 5864 5865 5866 5868 5867 5868 5871 5873 5874 5875 5875 5873 5873 5874 5873 5870 5873 5874 5873 5873 5872 5874 5874 5875 5875 5872 5876
5827 5830 5832 5834 5836 5840 5843 5844 5845 5846 5848 5852 5856 5857 5857 5857 5856 5855 5855 5857 5859 5858 5855 5855 5858 5858 5860 5860 5860 5862 5863 5864 5864 5864 5866 5868 5868 5866 5865 5867 5866 5861 5862 5861 5863 5866 5866 5865 5865
5824 5826 5829 5833 5834 5836 5838 5839 5837 5840 5843 5846 5849 5852 5853 5854 5852 5851 5851 5851 5851 5851 5851 5851 5849 5848 5850 5852 5854 5854 5854 5854 5854 5854 5854 5856 5858 5858 5857 5856 5849 5829 5844 5845 5845 5851 5855 5856 5857
5823 5824 5827 5831 5831 5832 5831 5832 5832 5835 5838 5842 5846 5848 5848 5846 5846 5847 5846 5846 5845 5845 5845 5845 5845 5846 5844 5842 5844 5846 5847 5847 5847 5846 5845 5845 5846 5845 5845 5844 5844 5838 5840 5820 5829 5835 5838 5842 5844
5821 5825 5826 5825 5827 5828 5829 5828 5830 5829 5829 5835 5838 5842 5841 5838 5838 5839 5840 5840 5839 5839 5839 5838 5838 5838 5840 5838 5836 5838 5839 5840 5838 5838 5838 5835 5834 5831 5831 5831 5824 5827 5826 5827 5815 5819 5826 5829 5834
5815 5817 5820 5822 5820 5820 5827 5822 5819 5820 5827 5826 5828 5830 5833 5832 5832 5833 5832 5833 5833 5832 5833 5832 5831 5830 5830 5830 5829 5828 5827 5828 5828 5827 5827 5826 5823 5821 5819 5818 5817 5812 5813 5812 5807 5802 5812 5814 5818
5810 5811 5813 5815 5815 5817 5815 5813 5815 5816 5816 5819 5821 5823 5823 5823 5826 5824 5824 5825 5824 5823 5823 5822 5822 5822 5821 5820 5820 5819 5817 5815 5815 5815 5814 5813 5812 5809 5806 5805 5802 5797 5799 5803 5802 5799 5801 5805 5809
5803 5805 5806 5807 5808 5810 5812 5810 5810 5809 5810 5811 5813 5815 5816 5818 5817 5814 5816 5815 5815 5815 5814 5813 5812 5813 5812 5810 5809 5808 5807 5805 5803 5802 5801 5800 5798 5797 5793 5791 5790 5788 5787 5786 5789 5788 5790 5791 5793
5798 5798 5799 5798 5801 5802 5803 5803 5802 5802 5803 5804 5805 5807 5810 5807 5806 5807 5807 5807 5807 5805 5804 5804 5804 5803 5801 5800 5798 5797 5796 5794 5792 5790 5788 5786 5784 5782 5782 5779 5776 5776 5774 5772 5773 5775 5776 5777 5778
5793 5794 5794 5793 5792 5793 5794 5794 5795 5795 5795 5796 5799 5801 5801 5802 5801 5799 5799 5798 5797 5795 5794 5792 5791 5790 5789 5788 5787 5785 5783 5782 5781 5779 5776 5774 5772 5770 5767 5766 5764 5761 5760 5760 5759 5759 5759 5760 5760
5786 5787 5787 5787 5786 5784 5786 5788 5788 5788 5788 5788 5791 5791 5792 5793 5792 5790 5789 5788 5785 5783 5783 5781 5780 5779 5778 5776 5775 5774 5772 5771 5770 5768 5766 5764 5761 5758 5756 5753 5751 5749 5747 5744 5743 5744 5745 5745 5746
5777 5778 5777 5777 5780 5778 5776 5777 5780 5780 5780 5780 5782 5783 5783 5782 5781 5780 5778 5777 5775 5773 5772 5772 5770 5769 5767 5765 5764 5763 5762 5761 5760 5757 5755 5752 5749 5746 5742 5738 5734 5730 5728 5727 5727 5723 5722 5723 5725